Bonaire, Bonaire

7:01 AM AST on February 09, 2016 (GMT -0400)
Flamingo

Weather History for TNCB - September, 2011

Change the Weather History Date:

Friday, September 30, 2011

  Actual Average Record
Temperature  
Mean Temperature 87 °F -  
Max Temperature 92 °F 88 °F 95 °F (2008)
Min Temperature 82 °F 81 °F 77 °F (2010)
Cooling Degree Days 22    
Growing Degree Days 37 (Base 50)    
Moisture  
Dew Point 78 °F    
Average Humidity 75    
Maximum Humidity 89    
Minimum Humidity 46    
Precipitation  
Precipitation 0.00 in - - ()
Sea Level Pressure  
Sea Level Pressure 29.82 in    
Wind  
Wind Speed 8 mph ()    
Max Wind Speed 18 mph    
Max Gust Speed -    
Visibility 9.2 miles    
Events      
Averages and records for this station are not official NWS values.
T = Trace of Precipitation, MM = Missing Value Source: Averaged Metar Reports

Daily Weather History Graph

Daily Weather History Graph

Search for Another Location

Airport or City:

Trip Planner

Search our weather history database for the weather conditions in past years. The results will help you decide how hot, cold, wet, or windy it might be!

Date:

Astronomy

Sep. 30, 2011 Rise Set
Actual Time 6:22 AM AST 6:23 PM AST
Civil Twilight 6:01 AM AST 6:45 PM AST
Nautical Twilight 5:36 AM AST 7:09 PM AST
Astronomical Twilight 5:11 AM AST 7:34 PM AST
Moon 9:25 AM AST (9/30) 9:15 PM AST (9/30)
Length of Visible Light 12h 44m
Length of Day
12h 01m
Waxing Crescent, 15% of the Moon is Illuminated
Sep 30
Waxing Crescent
Oct 3
First Quarter
Oct 11
Full
Oct 19
Last Quarter
Oct 26
New

Hourly Weather History & Observations

Time (AST) Temp. Heat Index Dew Point Humidity Pressure Visibility Wind Dir Wind Speed Gust Speed Precip Events Conditions
1:00 AM 84.2 °F 96.1 °F 78.8 °F 84% 29.83 in - North - - N/A   Unknown
2:00 AM 83 °F - 79 °F 83%  in - Calm Calm - -   Clear
2:00 AM 84.2 °F 96.1 °F 78.8 °F 84% 29.80 in - North - - N/A   Unknown
3:00 AM 82.4 °F 92.4 °F 78.8 °F 89% 29.80 in - North - - N/A   Unknown
4:00 AM 82.4 °F 92.4 °F 78.8 °F 89% 29.80 in - North - - N/A   Unknown
5:00 AM 82.4 °F 92.4 °F 78.8 °F 89% 29.80 in - North - - N/A   Unknown
6:00 AM 82.4 °F 92.4 °F 78.8 °F 89% 29.80 in - North - - N/A   Unknown
8:00 AM 87 °F - 79 °F 71% 29.86 in 19 mi SE 12.7 mph - -   Scattered Clouds
8:00 AM 86.0 °F 99.3 °F 78.8 °F 79% 29.83 in 6.2 mi SE 12.7 mph - N/A   Partly Cloudy
9:00 AM 87.8 °F 102.5 °F 78.8 °F 75% 29.86 in 6.2 mi SE 13.8 mph - N/A   Partly Cloudy
10:00 AM 89.6 °F 104.7 °F 78.8 °F 70% 29.89 in 6.2 mi ESE 13.8 mph - N/A   Partly Cloudy
11:00 AM 89 °F - 78 °F 64% 29.90 in 19 mi ESE 12.7 mph - -   Scattered Clouds
11:00 AM 89.6 °F 104.7 °F 78.8 °F 70% 29.89 in 6.2 mi ESE 12.7 mph - N/A   Partly Cloudy
12:00 PM 89.6 °F 104.7 °F 78.8 °F 70% 29.86 in 6.2 mi ESE 11.5 mph - N/A   Partly Cloudy
1:00 PM 91.4 °F 105.1 °F 77.0 °F 63% 29.83 in 6.2 mi ESE 8.1 mph - N/A   Partly Cloudy
2:00 PM 92 °F - 74 °F 46% 29.82 in 19 mi ESE 9.2 mph - -   Scattered Clouds
2:00 PM 91.4 °F 105.1 °F 77.0 °F 63% 29.80 in 6.2 mi East 10.4 mph - N/A   Partly Cloudy
3:00 PM 91.4 °F 102.5 °F 75.2 °F 59% 29.77 in 6.2 mi SE 10.4 mph - N/A   Partly Cloudy
4:00 PM 91.4 °F 105.1 °F 77.0 °F 63% 29.74 in 6.2 mi East 13.8 mph - N/A   Partly Cloudy
6:00 PM 87.8 °F 99.7 °F 77.0 °F 70% 29.77 in 6.2 mi East 18.4 mph - N/A   Partly Cloudy
9:00 PM 84.2 °F 96.1 °F 78.8 °F 84% 29.83 in - North - - N/A   Unknown
11:00 PM 84 °F - 78 °F 77%  in - Calm Calm - -   Clear
11:00 PM 84.2 °F 96.1 °F 78.8 °F 84% 29.83 in - North - - N/A   Unknown